Location: Czekanka
(50.4925°N, 19.2643°E)
Time: 12:41:42
(UTC+00:00)

Cosmos 1461 - Pass Details

Date: 15 June 2024
Orbit: 499 x 578 km, 65.0° (Epoch: 15 July)

Event Time Altitude Azimuth Distance (km) Brightness Sun altitude
Exits shadow 01:11:36 12° 230° (SW) 1,643 4.6 -9.3°
Maximum altitude 01:15:13 67° 312° (NW) 562 2.9 -8.9°
Drops below altitude 10° 01:19:04 10° 36° (NE) 1,733 7.1 -8.6°
Sets 01:21:14 0° 40° (NE) 2,614 8.8 -8.4°
